GFSWCAN_prec_cloud_105.txt.gz
Cloud_Cover
100 78 55 100 100 100 100 20 10 97 100 5 7 76 91 54 16 71 54 100 98 96 5 6 6 5 5 77 61 23 5 44 70 100 100 100 61 12 67 92 100 100 100 100 74 72 27 100 97 100 99 100 100 100
90 93 96 51 100 100 100 100 35 94 100 5 72 97 100 11 5 77 59 80 100 100 7 42 82 80 5 11 5 5 11 8 100 94 100 100 99 100 100 100 100 100 100 100 34 8 22 100 63 100 100 100 100 100
100 100 100 100 100 100 100 100 100 59 5 48 96 100 100 5 20 27 98 100 100 100 49 100 16 90 2 8 72 50 5 6 100 97 98 100 100 100 100 100 100 100 100 100 72 0 2 4 14 100 100 100 100 100
100 100 100 100 100 100 100 100 100 5 5 31 100 100 37 100 6 77 51 94 100 100 100 26 3 5 4 0 0 0 0 6 95 100 100 100 100 100 100 100 100 100 100 100 26 57 7 5 91 100 100 100 100 100
100 42 92 100 100 100 100 100 58 5 5 22 100 90 100 100 96 93 100 100 100 99 89 64 67 37 38 20 1 0 0 4 92 100 100 100 100 100 100 100 100 100 100 99 100 100 100 91 100 100 100 100 100 100
51 5 40 100 100 100 100 100 100 7 5 5 16 87 100 100 100 100 100 100 100 99 100 94 54 100 79 97 4 5 5 4 28 77 100 100 100 100 100 100 100 100 100 100 100 100 100 100 100 100 100 100 100 100
40 5 48 100 100 100 100 100 97 5 5 19 99 100 100 100 100 100 100 100 100 100 100 100 90 64 1 4 23 27 56 84 9 73 100 100 100 100 100 100 100 100 100 100 100 100 100 100 100 100 100 100 100 100
34 5 6 100 100 100 100 100 100 100 5 74 100 100 100 100 100 100 100 100 100 100 100 100 59 40 51 82 94 99 90 100 46 45 100 100 100 100 100 100 100 100 100 100 100 100 100 100 100 100 96 100 81 90
31 5 23 100 100 100 100 100 100 71 94 100 100 100 100 100 100 100 100 100 100 100 96 98 33 96 96 100 100 99 43 98 29 100 100 100 100 100 100 100 100 100 100 100 100 100 100 100 100 100 80 71 100 96
28 20 95 70 100 100 100 100 100 100 100 100 100 100 100 100 100 100 100 100 100 100 100 88 82 100 92 100 100 100 100 93 100 63 40 100 100 100 100 100 100 100 100 100 100 69 72 100 88 100 100 100 100 100
5 10 58 100 100 100 100 100 100 100 100 100 100 100 100 100 100 100 100 100 100 100 95 100 99 100 100 100 100 100 97 92 100 69 91 99 100 100 100 100 100 100 100 99 98 99 100 100 100 100 93 84 100 100
98 99 100 100 100 100 100 100 100 100 100 100 100 100 100 100 100 100 100 100 93 63 96 100 98 100 100 100 100 100 99 98 90 87 99 100 100 98 96 100 100 100 98 84 80 79 91 99 100 100 100 98 91 100
99 99 100 100 100 100 100 100 100 100 100 100 100 100 100 100 100 100 100 100 100 67 33 48 100 100 100 100 100 100 100 100 100 100 100 98 100 98 99 97 85 66 95 58 25 11 78 82 57 100 94 100 90 89
100 100 100 100 100 100 100 100 100 100 100 100 96 98 98 100 100 100 100 100 100 99 100 47 100 100 100 100 100 94 100 92 100 100 99 100 100 100 90 88 69 82 100 100 90 56 53 76 88 93 93 94 84 86
100 100 100 100 100 100 100 100 100 100 100 100 87 91 97 100 100 100 100 100 100 100 100 100 86 88 94 100 100 100 100 100 100 100 100 100 100 100 100 100 100 100 100 100 100 100 100 100 100 100 100 94 78 70
100 100 100 100 100 100 100 100 100 100 100 97 82 100 100 91 100 100 100 100 100 100 100 100 100 100 100 100 100 100 100 100 100 100 100 100 100 100 100 100 100 100 100 100 100 100 100 100 100 100 100 100 100 100
100 100 100 100 100 100 100 100 100 100 100 100 100 99 100 100 100 100 100 100 100 100 99 99 99 99 100 100 100 100 100 100 100 100 100 100 100 100 100 73 100 98 92 74 100 79 100 100 100 100 100 100 94 87
100 100 100 100 100 100 100 100 100 100 100 100 99 100 100 100 100 99 100 100 100 100 100 96 82 90 92 100 100 100 100 99 94 99 92 71 100 100 100 100 99 94 86 85 73 62 25 5 37 99 86 77 68 80
100 100 100 100 90 95 100 100 92 100 100 97 100 97 100 100 100 100 99 97 91 91 100 100 100 89 93 98 100 100 88 85 82 94 78 98 100 80 87 66 80 92 93 87 87 88 80 49 82 82 81 39 88 83
100 100 99 100 100 100 95 60 82 75 96 95 87 77 86 88 88 85 96 99 100 100 100 97 90 100 100 98 97 100 100 98 85 85 95 99 94 87 85 68 98 98 89 82 68 74 67 92 95 80 78 65 64 88
77 100 100 100 88 100 81 70 84 41 85 76 90 90 74 92 92 97 98 100 100 100 100 100 100 100 94 92 91 83 83 90 100 100 91 79 91 99 85 100 100 92 82 98 91 91 74 88 95 89 94 82 73 98
61 86 57 68 87 89 94 22 66 41 45 95 90 46 81 89 83 86 81 91 100 100 100 100 100 100 100 100 100 100 99 76 69 74 92 86 94 100 97 90 91 88 83 80 67 76 79 78 79 72 98 100 100 100
95 96 100 100 96 53 95 84 64 86 57 88 84 77 79 79 78 71 86 94 98 100 97 94 95 98 99 100 100 100 100 100 100 100 100 100 100 100 100 100 100 100 100 98 100 100 96 88 92 98 99 97 98 95
88 94 88 58 14 88 75 76 76 58 81 50 68 79 79 88 75 98 99 99 100 100 100 100 100 100 100 100 100 100 100 100 100 100 100 100 100 100 100 100 100 100 100 100 100 100 100 100 100 100 100 100 100 100
83 79 60 67 32 42 59 50 40 51 83 51 61 100 100 83 74 67 99 100 100 100 100 100 100 100 100 100 100 100 96 94 78 93 100 96 86 59 69 90 98 100 100 100 100 100 100 100 100 100 100 100 100 100
78 29 37 61 66 64 81 91 95 94 94 100 100 90 84 98 84 99 85 86 97 84 78 50 69 69 92 86 96 85 98 81 100 67 98 94 89 81 82 82 95 96 96 100 100 100 100 100 100 100 100 100 100 100
46 59 79 89 100 99 99 100 100 100 100 100 97 97 76 96 100 100 99 92 81 79 67 48 13 36 84 99 100 100 98 83 86 98 99 100 100 100 82 83 86 97 93 99 100 100 100 100 100 100 100 100 100 100
64 83 77 82 99 84 89 79 92 94 99 84 69 92 78 56 96 75 62 62 62 65 97 88 61 35 59 96 78 86 86 66 56 37 14 11 69 86 88 82 83 85 84 82 100 95 100 100 100 100 100 100 100 100
71 76 73 73 83 72 100 97 100 98 99 65 78 100 97 100 100 90 87 71 20 6 10 9 86 35 18 16 63 91 90 100 98 39 93 100 91 44 82 95 65 78 82 89 92 93 100 100 100 100 100 100 100 100
97 76 70 100 100 100 100 100 97 97 84 77 69 98 95 100 100 100 75 55 52 99 98 84 40 24 19 13 100 80 99 98 100 99 100 94 96 100 100 97 63 56 87 89 88 95 100 96 96 97 100 100 100 100
97 80 80 100 100 100 100 93 95 92 70 70 39 68 95 100 100 100 100 82 47 66 19 91 100 97 78 94 100 80 55 86 99 92 85 96 100 100 100 100 97 75 41 69 52 67 95 86 69 96 93 99 100 92
100 100 95 94 99 99 90 74 84 68 100 77 99 90 93 38 99 98 96 97 58 55 100 43 21 100 98 100 86 84 9 69 58 60 44 50 79 81 70 75 89 66 69 15 65 86 86 100 97 95 92 98 100 100
99 47 82 86 98 98 94 67 59 73 94 100 97 95 96 16 46 76 100 100 100 72 51 18 58 94 51 36 45 80 80 93 100 88 100 95 99 92 29 73 82 80 50 52 71 54 92 91 100 100 100 98 100 100

GFSWCAN_prec_cloud_108.txt.gz
Cloud_Cover
100 100 97 99 100 100 100 100 31 6 97 47 38 12 73 99 100 42 59 100 100 85 5 5 5 5 5 35 5 3 5 54 64 98 86 100 90 80 71 34 100 79 50 55 100 100 87 100 77 100 100 100 100 100
100 100 100 100 94 100 100 100 67 10 58 100 40 5 21 100 100 82 26 100 100 100 4 5 4 5 1 5 5 13 5 7 17 29 94 100 100 100 99 95 69 84 100 99 100 99 100 27 92 100 100 100 100 100
98 100 100 100 100 100 100 100 100 100 56 26 62 5 29 28 100 32 9 97 100 100 100 79 7 35 4 3 32 8 68 5 60 81 100 100 100 100 49 70 100 100 100 100 97 92 6 23 84 100 100 100 100 100
100 100 97 100 100 100 100 100 100 100 100 71 22 5 92 100 100 31 79 96 100 99 100 92 86 94 3 0 3 0 5 19 92 100 100 100 100 100 100 100 100 100 100 100 62 100 74 5 10 90 100 100 100 100
99 99 100 100 100 100 100 100 100 100 76 9 5 99 11 84 100 100 24 100 65 90 100 100 86 68 12 68 2 5 0 5 5 45 100 100 100 100 100 100 100 100 100 100 100 100 100 100 100 100 100 100 100 100
100 100 100 100 100 100 100 100 100 100 100 5 5 84 100 100 100 86 100 97 100 100 100 99 9 5 42 100 69 5 5 5 10 15 67 100 100 100 100 100 100 100 100 100 100 100 100 100 100 100 100 100 100 100
100 100 100 100 37 100 100 100 100 100 100 52 5 19 23 100 100 100 94 100 100 100 100 81 74 5 51 5 87 5 5 61 97 68 86 100 100 100 100 100 100 100 100 100 100 100 100 100 100 100 100 100 83 100
100 100 100 45 75 100 100 100 100 100 100 100 77 59 100 100 100 100 100 100 100 100 100 100 93 89 47 75 49 49 80 96 100 100 90 100 100 100 100 100 100 100 100 100 100 100 100 100 100 100 100 100 100 100
100 100 81 5 98 100 100 100 100 100 100 100 100 100 100 100 100 100 100 100 100 100 100 100 100 90 96 100 99 99 100 100 27 100 96 100 100 100 100 100 100 100 100 100 100 100 100 100 100 100 100 100 100 100
97 15 5 36 100 100 100 100 100 100 100 100 100 100 100 100 100 100 100 100 100 100 100 99 36 100 89 100 100 100 100 93 99 70 81 100 100 100 100 100 100 100 100 100 100 100 100 100 100 100 100 100 100 100
72 5 5 100 100 100 100 100 100 100 100 100 100 100 100 100 100 100 100 100 100 100 87 67 69 74 90 75 100 100 100 96 81 31 99 100 100 100 100 100 100 100 100 100 100 100 100 100 100 100 100 99 100 100
5 5 41 100 100 100 100 100 100 100 100 100 100 100 100 100 100 100 100 100 100 100 12 100 100 99 100 100 100 100 100 98 100 97 100 100 100 100 100 100 100 100 100 100 100 100 100 100 100 99 100 100 100 100
5 5 26 100 100 100 100 100 100 100 100 100 100 100 100 100 100 100 100 100 100 100 36 98 91 96 100 100 100 100 100 80 100 100 98 100 100 100 100 85 69 74 92 100 96 100 94 82 99 100 100 100 97 68
21 72 100 100 100 100 100 100 100 100 100 100 100 100 100 100 100 100 100 100 100 100 96 91 100 96 100 100 100 100 100 100 100 100 100 100 100 100 100 100 100 100 100 39 56 18 48 76 71 81 99 99 99 75
100 100 100 100 100 100 100 100 100 100 100 100 92 100 100 100 100 100 100 100 100 100 100 100 97 82 100 100 100 100 100 100 100 100 100 100 100 100 100 100 100 94 65 98 100 100 51 30 44 83 93 93 86 86
100 100 100 100 100 100 100 100 100 100 100 100 100 100 98 100 100 100 100 100 100 100 100 100 100 100 100 100 100 100 100 100 100 100 100 100 98 100 99 100 100 69 66 62 56 45 43 61 67 93 95 93 89 90
100 100 100 100 100 100 100 100 100 100 100 100 100 98 91 93 100 100 89 90 100 96 100 100 100 100 100 100 100 100 100 100 100 99 98 100 100 96 100 100 100 95 96 91 86 100 100 88 67 68 89 100 85 86
100 100 100 100 100 98 100 100 100 100 100 98 70 95 81 92 83 98 100 97 99 100 98 96 100 100 100 100 100 100 100 100 100 100 99 88 81 84 97 100 100 100 100 100 100 94 26 22 65 100 86 87 95 93
100 100 100 100 96 47 100 100 100 100 92 90 100 99 90 98 100 98 97 97 100 100 100 100 100 76 98 100 100 100 100 98 99 100 92 96 90 54 61 56 68 81 75 81 78 77 86 93 90 91 85 95 99 83
100 100 100 100 100 100 100 98 98 90 89 86 65 86 65 100 100 95 98 92 98 100 98 97 82 95 100 100 100 100 100 100 100 100 98 96 98 76 72 71 100 93 80 83 93 90 79 79 95 86 78 64 65 100
100 100 100 100 100 80 5 9 24 7 83 71 98 98 100 98 100 91 95 98 100 100 100 100 100 100 100 100 100 100 100 100 100 84 89 85 85 100 95 97 78 76 72 79 81 90 80 99 98 85 68 93 83 76
71 97 73 89 100 88 97 91 90 60 65 68 87 27 67 77 75 87 77 96 98 99 100 100 100 100 100 100 100 100 100 100 85 88 89 84 89 84 82 86 72 85 81 82 78 87 93 93 84 82 76 94 69 78
92 98 97 95 92 86 98 100 100 100 100 100 100 89 94 90 82 74 98 94 100 100 100 100 100 100 100 100 100 100 100 100 100 100 99 93 93 94 94 85 81 79 81 84 81 83 85 94 100 100 100 100 98 94
98 99 98 100 88 93 86 86 58 69 82 74 54 95 100 100 99 99 100 100 98 100 100 100 100 100 100 100 100 100 100 100 100 100 100 100 84 84 84 96 100 100 100 100 100 100 99 100 100 100 100 100 100 100
100 96 80 39 25 19 20 53 65 54 91 73 89 96 86 42 60 67 80 96 94 86 98 98 99 100 100 100 100 100 100 100 100 97 97 81 72 81 91 99 100 100 100 100 100 100 100 100 100 100 100 100 100 100
80 57 55 80 85 70 58 62 44 68 67 70 89 93 59 61 67 99 53 78 91 81 75 5 46 86 100 85 96 90 97 86 100 74 97 100 89 80 88 85 91 94 98 100 100 100 100 100 100 100 100 100 100 100
70 74 72 72 56 62 52 56 63 76 75 98 92 87 95 99 100 93 94 89 73 77 37 24 30 28 78 100 100 100 100 78 57 97 94 96 100 100 94 99 96 99 92 85 92 100 99 100 100 100 100 100 100 100
90 86 76 73 62 56 84 80 94 96 100 98 100 100 100 95 87 88 78 88 97 94 95 77 56 27 54 83 85 100 100 82 48 5 6 10 25 57 80 83 86 82 77 78 81 74 78 81 79 86 88 100 100 100
44 98 84 85 99 73 100 96 99 100 99 84 91 99 100 100 100 94 100 94 20 5 5 20 99 56 58 49 85 95 99 100 100 99 99 100 84 8 76 73 65 52 62 83 71 88 37 39 63 88 88 82 94 100
98 82 89 99 81 100 100 100 100 98 97 98 78 96 96 100 100 98 68 38 6 6 17 35 36 20 25 36 99 91 100 99 100 100 96 88 57 98 100 100 100 95 89 58 89 82 96 98 90 81 74 79 87 100
85 98 94 83 98 100 100 99 92 88 85 80 64 70 96 99 100 100 97 92 98 99 86 100 100 92 86 44 89 11 62 97 97 100 99 94 100 100 100 100 100 100 76 77 99 100 100 92 100 100 100 100 100 100
67 99 70 93 92 98 92 88 93 100 100 94 99 88 98 45 95 99 96 92 20 9 75 74 100 100 100 100 86 88 14 80 53 52 10 25 22 62 53 79 100 87 77 73 100 100 100 100 98 99 100 100 100 100
81 100 100 100 100 100 100 100 100 100 100 100 100 100 99 92 76 87 100 91 83 98 40 5 54 81 55 5 12 84 96 100 100 95 100 92 88 89 52 100 100 80 21 71 98 85 100 100 100 100 100 100 100 100

GFSWCAN_prec_cloud_114.txt.gz
Cloud_Cover
100 95 63 99 58 100 100 100 100 100 100 100 100 100 100 100 100 100 69 7 34 70 94 12 4 6 58 18 86 96 27 80 98 97 100 100 100 98 94 53 95 100 100 100 94 99 100 100 100 100 100 100 100 100
80 74 38 100 11 100 100 100 100 100 100 100 80 89 46 47 100 98 100 10 94 57 95 6 5 5 5 10 96 99 95 60 98 92 98 100 100 99 100 100 54 100 100 100 91 100 100 100 100 100 100 100 100 100
5 12 10 5 5 71 98 100 100 100 100 93 96 75 15 100 100 54 94 95 100 100 96 51 5 3 5 1 2 96 99 94 61 92 81 95 91 99 100 100 96 100 100 100 89 100 100 100 100 100 100 100 100 100
5 29 5 5 10 12 100 100 100 100 100 84 97 86 55 95 100 90 60 78 99 78 89 57 4 0 2 1 4 5 8 46 22 58 100 98 100 100 96 100 100 100 100 100 100 100 100 100 100 100 100 100 100 100
5 5 5 80 99 66 100 100 100 100 100 99 95 100 100 36 97 86 91 75 81 53 100 70 4 4 5 5 5 5 18 78 100 100 99 94 100 79 100 100 100 100 100 100 100 100 100 100 100 100 100 100 100 100
5 5 5 5 87 100 100 96 100 100 100 87 100 15 7 10 96 100 99 59 18 60 100 83 39 5 5 3 8 24 62 100 100 100 100 89 24 100 100 100 100 100 100 100 100 100 100 100 100 100 100 100 100 100
5 5 5 5 8 100 100 100 100 100 100 100 99 100 60 12 27 88 67 49 14 65 100 99 84 30 31 22 82 100 100 100 100 100 96 92 92 86 100 100 100 100 100 100 100 100 100 100 100 100 100 100 100 100
5 5 5 24 100 100 100 100 100 100 100 100 100 100 100 84 89 75 97 70 75 98 87 94 68 51 33 100 100 100 100 98 100 83 100 81 100 88 99 100 100 100 100 100 100 93 94 100 100 100 100 100 96 100
5 5 5 98 100 100 100 100 100 100 100 100 100 99 100 100 100 74 88 100 100 100 100 98 98 85 83 100 100 100 100 100 92 78 94 99 100 98 100 100 100 100 100 100 100 100 100 92 100 100 100 100 100 94
5 5 91 100 100 100 100 100 100 100 100 100 67 99 100 100 81 83 100 100 100 100 96 100 74 39 36 97 95 100 100 100 100 83 100 100 100 100 100 100 100 100 100 100 100 100 100 100 100 100 100 100 100 100
38 32 99 93 100 100 92 100 100 100 100 96 100 100 100 98 100 100 100 100 100 100 98 78 41 64 19 69 96 79 98 99 100 99 99 100 100 100 100 100 100 100 100 100 100 100 100 100 100 100 100 100 100 100
99 100 100 100 48 43 99 100 100 88 100 100 100 100 100 100 100 100 100 100 100 100 100 100 99 90 96 90 97 100 100 96 100 99 99 100 100 100 100 100 100 100 100 100 100 100 100 100 100 100 100 100 100 100
100 100 76 12 17 70 100 29 100 100 100 100 100 100 100 100 100 100 100 100 100 100 100 97 100 100 79 100 100 100 100 100 69 100 100 100 100 100 100 100 100 99 100 100 100 100 100 100 100 100 100 100 100 100
62 88 96 80 99 100 100 100 100 100 100 100 100 100 98 81 100 100 100 100 100 100 100 95 98 94 99 100 100 100 100 100 100 100 100 100 100 100 100 100 100 96 98 100 100 100 100 100 100 100 100 100 100 100
5 26 89 100 100 100 100 100 100 100 100 100 99 94 100 100 100 100 100 100 100 100 100 99 98 99 96 100 100 99 100 100 100 100 100 100 100 100 100 100 100 99 92 97 100 100 100 100 100 100 100 100 100 100
5 68 94 100 100 100 100 100 100 100 100 100 100 100 100 100 100 100 100 100 100 100 88 81 98 100 97 99 100 96 100 100 100 100 100 100 100 100 100 100 100 100 100 100 100 100 100 100 100 100 100 100 100 100
44 61 34 99 95 98 100 100 100 100 100 100 100 100 100 100 100 100 100 96 94 100 97 95 96 100 88 99 83 98 99 100 100 100 100 100 100 100 100 100 100 100 100 100 91 94 100 100 100 100 100 100 100 100
62 64 12 6 99 99 100 100 100 100 100 100 100 100 100 100 100 98 99 90 95 100 99 99 74 94 100 100 100 100 100 100 100 100 100 100 100 100 99 100 100 100 100 100 100 97 100 100 100 100 100 100 100 100
40 74 82 100 76 71 96 88 98 100 100 100 100 100 100 100 100 96 99 100 100 100 100 96 80 100 100 100 100 100 100 100 100 100 100 100 100 100 100 100 100 100 100 100 100 100 99 100 100 100 100 100 100 100
100 100 98 83 100 90 62 54 95 99 100 100 98 99 100 100 96 100 100 100 100 100 100 100 100 100 100 100 100 100 100 100 100 100 100 100 100 100 100 100 100 100 100 100 100 99 100 100 100 100 100 99 100 100
100 100 100 100 99 100 89 100 100 100 89 98 90 97 75 88 93 100 100 98 100 100 100 100 100 100 100 100 100 100 100 100 100 100 100 100 100 100 100 100 100 100 100 100 100 94 90 100 100 100 100 100 100 100
100 100 100 100 100 96 100 96 98 100 74 98 91 56 92 90 86 94 39 92 100 100 100 100 100 100 100 100 100 100 100 100 100 100 100 94 100 100 100 100 100 100 100 100 100 100 100 100 100 100 100 100 100 100
100 100 100 100 95 94 99 92 78 66 75 95 87 85 100 98 51 21 95 99 100 100 100 100 100 100 100 100 100 100 100 100 100 100 100 100 100 100 100 100 100 100 100 100 100 100 100 100 100 100 100 100 100 100
100 99 96 98 98 100 90 88 85 88 94 96 69 92 41 58 78 93 100 100 100 100 100 98 100 100 96 93 100 100 100 98 100 100 100 100 100 100 100 100 100 100 100 100 100 100 100 100 94 100 100 100 100 100
99 98 96 59 35 43 38 48 48 37 79 79 86 91 98 75 77 66 96 100 100 100 100 95 96 93 99 100 100 98 90 100 100 100 100 100 100 100 100 100 100 100 100 100 100 100 100 100 100 100 100 100 100 100
66 58 43 57 24 20 40 62 64 63 46 96 100 95 74 73 64 71 82 100 100 100 92 77 92 93 97 99 100 100 100 98 100 100 100 100 100 100 100 100 100 100 100 100 100 100 100 100 100 100 100 96 86 98
28 88 69 9 53 20 55 55 54 38 48 69 93 56 65 78 71 73 100 97 98 84 55 64 86 95 83 96 100 100 100 99 100 100 100 100 100 100 100 100 100 100 100 100 100 100 100 100 100 100 100 100 100 100
73 85 55 52 50 37 63 65 68 57 88 69 66 62 55 22 30 99 100 100 84 68 80 98 96 94 99 100 100 100 100 100 100 99 100 100 100 99 100 100 88 93 82 100 100 100 100 100 100 100 100 100 100 100
63 78 68 60 56 60 83 67 85 100 100 89 79 59 79 100 100 100 100 100 98 88 76 76 95 99 100 100 100 100 100 100 100 100 100 100 100 100 100 100 100 100 100 100 100 98 100 98 98 100 100 100 100 100
64 53 63 70 80 83 100 100 100 100 100 94 89 100 100 100 100 100 100 100 100 100 57 50 66 67 58 80 98 100 100 100 100 100 100 96 96 98 100 100 100 100 100 100 100 100 96 98 98 100 98 100 100 100
83 68 76 86 98 100 100 100 98 81 98 100 99 99 100 100 100 100 100 100 80 59 40 75 73 60 21 7 13 14 78 100 90 95 92 100 100 100 100 100 100 100 100 100 100 100 100 99 100 100 100 100 91 88
84 100 100 100 100 100 100 100 100 100 92 100 100 100 100 100 100 100 100 100 75 88 83 86 99 90 94 78 20 28 42 96 77 9 5 7 23 41 91 100 100 100 100 100 100 100 100 100 100 100 100 100 100 100
80 83 100 100 100 100 100 100 100 100 100 100 100 100 100 100 100 100 100 100 100 99 100 99 100 100 81 70 31 20 5 37 98 84 91 26 28 66 95 100 100 100 91 96 98 100 100 100 100 100 100 96 97 82

GFSWCAN_prec_cloud_117.txt.gz
Cloud_Cover
80 100 57 100 100 100 100 100 100 100 100 100 100 100 100 100 100 100 100 100 100 100 100 100 84 79 68 73 76 100 62 81 81 93 100 100 100 100 99 100 100 100 100 100 100 100 96 100 100 100 100 100 100 100
80 100 62 86 100 100 100 100 100 100 100 100 100 100 100 100 100 100 100 100 100 100 99 43 53 91 90 97 100 96 99 35 100 93 98 99 100 100 98 100 71 100 100 100 100 100 99 100 100 100 100 100 100 100
50 20 89 100 100 100 100 54 100 100 100 100 100 100 100 100 100 100 100 100 98 82 14 8 8 15 3 2 8 96 100 94 96 41 63 97 92 76 100 100 98 96 100 100 100 99 100 100 100 100 100 100 100 100
14 17 94 94 5 97 100 31 100 100 100 100 100 94 93 100 52 85 93 99 80 52 83 82 49 87 5 5 5 5 69 94 86 88 100 88 100 99 100 100 36 91 75 91 93 90 100 100 100 100 100 100 100 100
5 3 5 6 5 65 34 44 30 100 100 100 100 9 5 5 18 16 78 100 66 81 100 100 87 18 5 7 82 85 92 99 100 99 95 85 100 100 100 97 100 100 100 100 100 100 100 100 100 100 100 100 100 100
5 5 5 20 64 5 96 8 100 100 100 100 90 96 35 5 5 85 100 93 100 99 98 90 100 100 70 28 86 99 98 100 100 74 98 81 5 96 100 100 100 100 100 100 100 100 100 100 100 100 100 100 100 100
5 5 5 5 25 84 5 5 100 100 100 100 92 61 86 60 13 35 49 64 38 94 76 71 83 50 22 96 100 100 100 87 99 100 90 99 96 96 100 100 100 100 100 100 100 100 100 100 100 100 100 100 100 100
59 5 5 5 10 100 60 68 100 100 100 100 51 88 93 100 93 95 59 6 34 57 91 97 92 98 86 100 100 100 96 100 95 67 94 85 94 100 100 100 97 100 100 100 100 92 88 100 96 100 100 100 100 100
100 10 5 5 5 96 94 100 100 100 100 100 100 100 100 97 100 100 69 84 79 94 91 86 100 100 69 99 100 94 91 100 93 83 92 97 100 99 79 100 94 100 100 100 100 100 100 97 93 98 97 100 100 100
46 4 0 5 4 100 100 100 100 100 100 100 100 100 100 96 100 75 96 100 100 100 100 100 100 96 54 100 91 88 100 100 100 91 94 99 96 90 89 100 96 100 100 100 100 100 100 100 100 100 100 99 100 100
4 3 5 17 100 100 100 100 100 100 100 92 94 98 100 100 100 100 100 100 100 100 100 100 100 100 65 91 98 97 96 98 97 100 97 85 99 100 100 100 100 96 100 100 100 100 100 100 100 91 100 100 100 100
5 5 32 100 100 100 100 100 100 81 73 88 100 100 100 97 100 99 100 100 100 100 100 100 100 75 98 96 96 92 100 97 86 97 94 100 100 100 100 100 94 95 87 75 99 100 100 100 100 100 100 100 100 100
100 100 100 100 100 100 100 100 100 85 100 100 100 100 100 84 100 99 100 100 100 100 100 100 98 98 86 96 99 100 100 100 99 95 99 100 100 100 100 100 100 99 89 19 82 87 100 100 100 100 100 100 100 100
100 100 100 100 100 100 100 94 100 100 100 100 100 100 100 100 100 100 100 100 100 100 100 100 100 96 98 99 100 100 100 100 100 100 100 100 100 100 100 99 100 95 100 100 100 88 100 100 100 100 100 100 100 100
100 95 38 57 51 100 100 100 97 98 100 100 100 100 100 100 100 100 99 100 100 100 100 100 99 79 99 95 100 100 100 100 100 100 100 100 100 100 100 100 99 100 100 100 100 100 100 100 100 100 100 100 100 100
7 9 7 7 82 100 98 100 100 100 98 100 100 100 100 100 100 100 100 100 99 99 100 69 72 100 91 95 100 97 92 100 100 100 100 100 100 100 100 100 100 100 100 100 100 100 100 100 100 100 100 100 100 100
17 98 61 100 100 100 100 100 100 100 100 100 100 100 100 100 100 100 100 100 100 100 100 99 92 88 97 97 93 90 100 100 100 100 100 100 100 100 100 100 100 100 100 100 100 100 100 100 100 100 100 100 100 100
94 92 100 99 99 100 100 100 100 100 100 100 100 100 100 100 100 100 100 100 100 100 99 97 64 99 84 100 100 100 100 100 100 100 100 100 100 100 100 100 100 100 100 100 100 100 100 100 100 100 100 100 100 100
100 99 100 92 87 89 99 100 100 100 100 100 100 100 100 100 100 100 100 100 100 99 88 89 98 100 100 100 100 100 100 100 100 100 100 100 100 100 100 100 100 100 100 100 100 100 100 100 100 100 100 100 100 100
100 100 96 100 100 100 100 100 99 100 100 99 100 100 100 100 100 100 100 100 92 99 100 100 100 100 100 100 100 100 100 100 100 100 100 100 100 100 100 100 100 100 100 99 100 79 100 100 100 100 100 98 100 100
79 100 100 100 100 100 100 100 91 100 100 99 100 100 100 98 100 100 99 91 100 100 99 100 100 100 100 100 100 100 100 100 100 100 100 100 100 100 100 100 100 100 100 100 100 100 100 100 100 100 100 100 100 100
100 76 99 100 100 100 100 90 97 88 92 100 100 99 100 100 100 99 93 100 100 100 100 100 100 100 100 100 100 100 100 100 100 100 98 79 100 100 100 100 100 100 100 100 100 100 100 100 100 100 100 100 100 100
74 100 100 90 99 100 99 97 98 99 100 100 99 97 100 100 93 26 99 100 100 100 100 100 100 100 98 98 100 99 91 100 100 100 100 100 100 100 100 100 100 100 100 100 100 100 100 62 78 100 100 100 100 100
100 99 92 100 100 98 97 100 96 96 100 100 99 100 87 99 70 82 100 100 100 100 100 100 100 100 100 99 100 100 100 100 100 100 100 100 100 100 100 100 100 100 100 100 100 100 100 100 59 100 100 100 100 100
100 100 99 96 79 97 99 97 90 89 100 98 100 95 99 100 99 92 100 100 100 100 100 100 100 100 100 100 100 100 73 100 100 100 100 100 100 100 100 100 100 100 100 100 100 100 100 100 100 100 100 100 100 100
93 69 53 77 79 76 88 98 99 94 100 99 97 98 100 99 68 89 96 100 100 100 100 100 100 100 100 100 100 100 100 100 100 100 100 100 100 100 100 100 100 100 100 100 100 100 100 100 100 100 100 90 70 95
62 88 47 6 72 37 91 83 70 84 99 99 99 100 79 63 49 78 100 100 100 100 100 100 100 100 100 100 100 100 100 99 100 100 100 100 100 100 100 100 100 100 100 100 100 100 100 100 100 100 100 100 100 100
51 66 54 92 54 47 73 58 77 83 98 73 76 51 46 56 57 100 100 100 100 100 100 100 100 100 100 100 100 100 100 100 100 100 100 100 100 100 100 100 85 47 94 100 100 100 100 100 100 100 100 100 100 100
89 82 47 85 78 28 67 88 100 94 96 98 90 23 75 100 100 100 100 100 100 100 100 100 100 100 100 100 100 100 100 100 100 97 94 100 100 100 99 100 100 100 100 100 100 100 100 100 98 100 100 100 100 100
93 92 37 10 25 34 99 96 100 100 92 99 100 99 94 100 100 100 100 100 100 100 100 100 100 90 84 97 100 100 100 100 100 99 100 100 100 99 100 100 100 100 100 100 100 100 77 100 96 100 97 100 100 100
95 90 62 85 88 100 100 100 100 100 100 100 100 100 100 100 100 100 100 100 100 100 100 100 100 100 81 71 72 56 97 100 100 100 96 100 100 100 100 100 100 100 100 100 100 100 100 96 100 100 100 100 99 85
100 98 57 72 100 100 100 100 100 100 100 100 100 100 100 100 100 100 100 100 100 100 96 100 100 100 97 94 95 55 76 99 99 70 14 73 100 96 100 100 100 100 100 100 100 100 100 100 100 100 100 100 100 100
99 98 100 100 100 100 100 100 100 100 100 100 100 100 100 100 100 100 100 100 100 100 100 100 100 100 83 50 66 93 83 94 85 49 6 21 54 55 98 100 100 100 100 100 100 100 100 100 100 100 100 100 97 82